DAL2701 KATL-KMEM

Flight info

Callsign DAL2701
Flight time 0h 59m
Altitude 32000
Route NASSA2 CHOOK WASER VANZE3
Aircraft B739/M-SDE2E3FGHIRWXY/LB1

Departure

Time 2026-05-08 01:39
Airport Hartsfield Jackson Atlanta International Airport (KATL)

Arrival

Time 2026-05-08 02:38
Airport Memphis International Airport (KMEM)
Time Latitude Longitude Altitude Speed Heading
2026-05-08 01:15 33.63955 -84.44196 1034 ft 0 kts 271°
2026-05-08 01:28 33.63955 -84.44181 1034 ft 4 kts 270°
2026-05-08 01:28 33.63954 -84.44150 1034 ft 4 kts 288°
2026-05-08 01:29 33.63941 -84.44124 1034 ft 4 kts 329°
2026-05-08 01:29 33.63925 -84.44117 1034 ft 0 kts 360°
2026-05-08 01:31 33.63939 -84.44117 1034 ft 7 kts
2026-05-08 01:31 33.64024 -84.44116 1034 ft 17 kts
2026-05-08 01:32 33.64155 -84.44115 1034 ft 19 kts
2026-05-08 01:32 33.64282 -84.44116 1034 ft 18 kts 359°
2026-05-08 01:32 33.64396 -84.44120 1034 ft 15 kts 357°
2026-05-08 01:32 33.64485 -84.44069 1034 ft 15 kts 57°
2026-05-08 01:33 33.64507 -84.43958 1034 ft 13 kts 82°
2026-05-08 01:33 33.64525 -84.43824 1034 ft 20 kts 79°
2026-05-08 01:33 33.64542 -84.43659 1035 ft 20 kts 90°
2026-05-08 01:33 33.64542 -84.43495 1035 ft 19 kts 90°
2026-05-08 01:34 33.64542 -84.43313 1035 ft 24 kts 90°
2026-05-08 01:34 33.64541 -84.43092 1035 ft 29 kts 90°
2026-05-08 01:34 33.64542 -84.42854 1034 ft 28 kts 90°
2026-05-08 01:34 33.64542 -84.42633 1034 ft 25 kts 90°
2026-05-08 01:35 33.64543 -84.42430 1034 ft 23 kts 90°
2026-05-08 01:35 33.64543 -84.42236 1034 ft 24 kts 89°
2026-05-08 01:35 33.64543 -84.42032 1034 ft 25 kts 90°
2026-05-08 01:35 33.64543 -84.41824 1034 ft 24 kts 90°
2026-05-08 01:36 33.64543 -84.41629 1035 ft 23 kts 90°
2026-05-08 01:36 33.64542 -84.41442 1035 ft 22 kts 90°
2026-05-08 01:36 33.64542 -84.41249 1035 ft 25 kts 90°
2026-05-08 01:36 33.64542 -84.41032 1034 ft 27 kts 90°
2026-05-08 01:37 33.64549 -84.40841 1034 ft 15 kts 79°
2026-05-08 01:37 33.64569 -84.40725 1034 ft 15 kts 84°
2026-05-08 01:37 33.64583 -84.40600 1033 ft 16 kts 63°
2026-05-08 01:37 33.64671 -84.40581 1032 ft 14 kts 319°
2026-05-08 01:38 33.64681 -84.40762 1033 ft 39 kts 271°
2026-05-08 01:38 33.64679 -84.41374 1037 ft 106 kts 270°
2026-05-08 01:38 33.64682 -84.42486 1036 ft 158 kts 272°
2026-05-08 01:38 33.64684 -84.43893 1383 ft 174 kts 272°
2026-05-08 01:39 33.64670 -84.45387 2060 ft 176 kts 273°
2026-05-08 01:39 33.64820 -84.46786 2872 ft 170 kts 287°
2026-05-08 01:39 33.65110 -84.48227 3240 ft 191 kts 285°
2026-05-08 01:39 33.65424 -84.49846 3461 ft 214 kts 285°
2026-05-08 01:40 33.65773 -84.51679 3686 ft 237 kts 284°
2026-05-08 01:40 33.66145 -84.53673 4207 ft 249 kts 283°
2026-05-08 01:40 33.66521 -84.55701 5086 ft 248 kts 282°
2026-05-08 01:40 33.66892 -84.57713 6060 ft 243 kts 282°
2026-05-08 01:41 33.67252 -84.59677 6894 ft 245 kts 280°
2026-05-08 01:41 33.67587 -84.61669 7720 ft 244 kts 279°
2026-05-08 01:41 33.67923 -84.63678 8557 ft 244 kts 280°
2026-05-08 01:41 33.68263 -84.65673 9393 ft 244 kts 280°
2026-05-08 01:42 33.68631 -84.67663 10199 ft 243 kts 281°
2026-05-08 01:42 33.68981 -84.69716 10553 ft 261 kts 279°
2026-05-08 01:42 33.69332 -84.71948 10727 ft 283 kts 279°
2026-05-08 01:42 33.69726 -84.74357 10877 ft 303 kts 280°
2026-05-08 01:43 33.70072 -84.76924 11020 ft 320 kts 273°
2026-05-08 01:43 33.70051 -84.79638 11393 ft 329 kts 268°
2026-05-08 01:43 33.69994 -84.82353 12004 ft 330 kts 270°
2026-05-08 01:43 33.69975 -84.85112 12678 ft 330 kts 270°
2026-05-08 01:44 33.69968 -84.87865 13328 ft 330 kts 271°
2026-05-08 01:44 33.69963 -84.90635 13897 ft 332 kts 271°
2026-05-08 01:44 33.69958 -84.93411 13983 ft 330 kts 271°
2026-05-08 01:44 33.69952 -84.96169 14037 ft 333 kts 271°
2026-05-08 01:45 33.69945 -84.98960 14043 ft 334 kts 271°
2026-05-08 01:45 33.69937 -85.01748 14047 ft 333 kts 271°
2026-05-08 01:45 33.69929 -85.04522 14058 ft 332 kts 271°
2026-05-08 01:45 33.69920 -85.07254 14062 ft 332 kts 271°
2026-05-08 01:46 33.69910 -85.10025 14065 ft 332 kts 271°
2026-05-08 01:46 33.69906 -85.12804 14066 ft 332 kts 271°
2026-05-08 01:46 33.69898 -85.15568 14068 ft 332 kts 270°
2026-05-08 01:46 33.69876 -85.18347 14070 ft 333 kts 271°
2026-05-08 01:47 33.69863 -85.21149 14409 ft 337 kts 271°
2026-05-08 01:47 33.69851 -85.23958 14953 ft 336 kts 271°
2026-05-08 01:47 33.69838 -85.26776 15441 ft 338 kts 270°
2026-05-08 01:48 33.69772 -85.32456 16309 ft 342 kts 270°
2026-05-08 01:48 33.69737 -85.35317 16747 ft 344 kts 269°
2026-05-08 01:48 33.69702 -85.38163 17230 ft 345 kts 269°
2026-05-08 01:48 33.69666 -85.41049 17675 ft 346 kts 269°
2026-05-08 01:49 33.69627 -85.43953 18074 ft 350 kts 269°
2026-05-08 01:49 33.69588 -85.46886 18432 ft 353 kts 269°
2026-05-08 01:49 33.69550 -85.49835 18825 ft 353 kts 269°
2026-05-08 01:49 33.69512 -85.52783 19225 ft 354 kts 269°
2026-05-08 01:50 33.69486 -85.55751 19567 ft 356 kts 270°
2026-05-08 01:50 33.69456 -85.58736 19913 ft 357 kts 270°
2026-05-08 01:50 33.69419 -85.61724 20263 ft 358 kts 270°
2026-05-08 01:50 33.69375 -85.64718 20606 ft 360 kts 269°
2026-05-08 01:51 33.69328 -85.67689 20937 ft 361 kts 269°
2026-05-08 01:51 33.69275 -85.70710 21255 ft 362 kts 269°
2026-05-08 01:51 33.69228 -85.73745 21552 ft 364 kts 270°
2026-05-08 01:51 33.69184 -85.76789 21875 ft 365 kts 269°
2026-05-08 01:52 33.69139 -85.79841 22165 ft 367 kts 269°
2026-05-08 01:52 33.69093 -85.82910 22460 ft 368 kts 269°
2026-05-08 01:52 33.69047 -85.85990 22757 ft 369 kts 269°
2026-05-08 01:52 33.69000 -85.89065 23031 ft 370 kts 269°
2026-05-08 01:53 33.68951 -85.92163 23298 ft 371 kts 269°
2026-05-08 01:53 33.68903 -85.95236 23559 ft 373 kts 269°
2026-05-08 01:53 33.68852 -85.98346 23780 ft 374 kts 269°
2026-05-08 01:53 33.68800 -86.01469 23974 ft 375 kts 269°
2026-05-08 01:54 33.68818 -86.04604 24159 ft 376 kts 275°
2026-05-08 01:54 33.69302 -86.07706 24368 ft 378 kts 281°
2026-05-08 01:54 33.69888 -86.10787 24569 ft 379 kts 280°
2026-05-08 01:54 33.70465 -86.13885 24752 ft 380 kts 280°
2026-05-08 01:55 33.71036 -86.16991 24946 ft 381 kts 280°
2026-05-08 01:55 33.71602 -86.20102 25187 ft 380 kts 280°
2026-05-08 01:55 33.72154 -86.23152 25544 ft 377 kts 280°
2026-05-08 01:55 33.72712 -86.26256 25882 ft 374 kts 279°
2026-05-08 01:56 33.73258 -86.29301 26239 ft 372 kts 279°
2026-05-08 01:56 33.73799 -86.32321 26595 ft 370 kts 279°
2026-05-08 01:56 33.74330 -86.35299 26954 ft 368 kts 279°
2026-05-08 01:56 33.74863 -86.38290 27331 ft 366 kts 279°
2026-05-08 01:57 33.75394 -86.41274 27692 ft 364 kts 279°
2026-05-08 01:57 33.75923 -86.44250 28082 ft 363 kts 279°
2026-05-08 01:57 33.76450 -86.47212 28454 ft 362 kts 279°
2026-05-08 01:57 33.76974 -86.50168 28857 ft 361 kts 279°
2026-05-08 01:58 33.77494 -86.53106 29245 ft 359 kts 279°
2026-05-08 01:58 33.78012 -86.56033 29645 ft 358 kts 278°
2026-05-08 01:58 33.78352 -86.57965 29909 ft 357 kts 278°
2026-05-08 01:58 33.78926 -86.61257 30340 ft 356 kts 278°
2026-05-08 01:59 33.79264 -86.63179 30557 ft 355 kts 278°
2026-05-08 01:59 33.79690 -86.65589 30847 ft 354 kts 278°
2026-05-08 01:59 33.80102 -86.67928 31134 ft 353 kts 278°
2026-05-08 01:59 33.80609 -86.70809 31491 ft 352 kts 278°
2026-05-08 02:00 33.81109 -86.73665 31850 ft 350 kts 278°
2026-05-08 02:00 33.81613 -86.76537 32050 ft 352 kts 278°
2026-05-08 02:00 33.82613 -86.82345 32059 ft 360 kts 278°
2026-05-08 02:01 33.83649 -86.88308 32078 ft 366 kts 278°
2026-05-08 02:01 33.84696 -86.94322 32068 ft 373 kts 278°
2026-05-08 02:02 33.85748 -87.00447 32040 ft 375 kts 278°
2026-05-08 02:02 33.86804 -87.06605 32046 ft 376 kts 278°
2026-05-08 02:03 33.87868 -87.12784 32034 ft 377 kts 278°
2026-05-08 02:03 33.88471 -87.16293 32037 ft 377 kts 278°
2026-05-08 02:04 33.89533 -87.22450 32084 ft 376 kts 278°
2026-05-08 02:04 33.90573 -87.28571 32073 ft 374 kts 278°
2026-05-08 02:05 33.91613 -87.34691 32084 ft 373 kts 278°
2026-05-08 02:05 33.92654 -87.40795 32110 ft 372 kts 278°
2026-05-08 02:06 33.93986 -87.46752 32080 ft 379 kts 289°
2026-05-08 02:06 33.96597 -87.52335 32060 ft 383 kts 293°
2026-05-08 02:07 33.99282 -87.57815 32051 ft 382 kts 292°
2026-05-08 02:07 34.01955 -87.63343 32038 ft 381 kts 292°
2026-05-08 02:08 34.04611 -87.68886 32040 ft 381 kts 292°
2026-05-08 02:08 34.07250 -87.74427 32029 ft 381 kts 292°
2026-05-08 02:09 34.09438 -87.79032 32040 ft 381 kts 292°
2026-05-08 02:09 34.12076 -87.84592 32026 ft 382 kts 292°
2026-05-08 02:10 34.14709 -87.90154 32040 ft 382 kts 292°
2026-05-08 02:10 34.17359 -87.95730 32039 ft 383 kts 292°
2026-05-08 02:11 34.19976 -88.01270 32063 ft 383 kts 292°
2026-05-08 02:11 34.22636 -88.06750 32049 ft 378 kts 292°
2026-05-08 02:12 34.23982 -88.09420 32027 ft 366 kts 292°
2026-05-08 02:12 34.25294 -88.12029 31669 ft 359 kts 292°
2026-05-08 02:12 34.26570 -88.14575 31197 ft 349 kts 292°
2026-05-08 02:12 34.27806 -88.17047 30788 ft 342 kts 292°
2026-05-08 02:13 34.28988 -88.19424 30328 ft 338 kts 292°
2026-05-08 02:13 34.30177 -88.21824 29793 ft 335 kts 292°
2026-05-08 02:13 34.31377 -88.24250 29263 ft 331 kts 292°
2026-05-08 02:13 34.32559 -88.26616 28767 ft 326 kts 293°
2026-05-08 02:14 34.33724 -88.28957 28290 ft 322 kts 293°
2026-05-08 02:14 34.34869 -88.31273 27754 ft 320 kts 293°
2026-05-08 02:14 34.36006 -88.33569 27267 ft 317 kts 293°
2026-05-08 02:14 34.37129 -88.35850 26795 ft 314 kts 293°
2026-05-08 02:15 34.38240 -88.38111 26336 ft 311 kts 293°
2026-05-08 02:15 34.39344 -88.40350 25888 ft 309 kts 293°
2026-05-08 02:15 34.40444 -88.42579 25433 ft 307 kts 293°
2026-05-08 02:15 34.41536 -88.44791 24992 ft 306 kts 294°
2026-05-08 02:16 34.42617 -88.46974 24549 ft 306 kts 294°
2026-05-08 02:16 34.43733 -88.49235 24088 ft 311 kts 295°
2026-05-08 02:16 34.44846 -88.51491 23625 ft 322 kts 295°
2026-05-08 02:16 34.46004 -88.53835 23065 ft 325 kts 295°
2026-05-08 02:17 34.47162 -88.56174 22609 ft 322 kts 296°
2026-05-08 02:17 34.48302 -88.58497 22103 ft 319 kts 295°
2026-05-08 02:17 34.49430 -88.60800 21633 ft 317 kts 295°
2026-05-08 02:17 34.50556 -88.63094 21149 ft 315 kts 295°
2026-05-08 02:18 34.51669 -88.65360 20714 ft 312 kts 295°
2026-05-08 02:18 34.52780 -88.67622 20270 ft 310 kts 295°
2026-05-08 02:18 34.53879 -88.69863 19827 ft 308 kts 295°
2026-05-08 02:18 34.54968 -88.72093 19386 ft 306 kts 295°
2026-05-08 02:19 34.56054 -88.74305 18963 ft 305 kts 295°
2026-05-08 02:19 34.57136 -88.76517 18523 ft 304 kts 295°
2026-05-08 02:19 34.58214 -88.78728 18044 ft 303 kts 295°
2026-05-08 02:19 34.59286 -88.80928 17581 ft 302 kts 295°
2026-05-08 02:20 34.60355 -88.83118 17071 ft 302 kts 296°
2026-05-08 02:20 34.61418 -88.85293 16846 ft 294 kts 296°
2026-05-08 02:20 34.62448 -88.87402 16842 ft 292 kts 296°
2026-05-08 02:20 34.63505 -88.89579 16873 ft 304 kts 295°
2026-05-08 02:21 34.64305 -88.91880 16776 ft 297 kts 282°
2026-05-08 02:21 34.64760 -88.94305 16432 ft 294 kts 281°
2026-05-08 02:21 34.65215 -88.96729 15852 ft 293 kts 282°
2026-05-08 02:21 34.65697 -88.99135 15099 ft 294 kts 283°
2026-05-08 02:22 34.66209 -89.01549 14373 ft 295 kts 283°
2026-05-08 02:22 34.66730 -89.03954 13719 ft 293 kts 284°
2026-05-08 02:22 34.67251 -89.06345 13018 ft 291 kts 284°
2026-05-08 02:22 34.67768 -89.08722 12302 ft 291 kts 284°
2026-05-08 02:23 34.68245 -89.11095 11800 ft 284 kts 283°
2026-05-08 02:23 34.68689 -89.13409 11355 ft 277 kts 283°
2026-05-08 02:23 34.69115 -89.15661 10943 ft 270 kts 283°
2026-05-08 02:23 34.69528 -89.17830 10680 ft 262 kts 284°
2026-05-08 02:24 34.69934 -89.19953 10526 ft 256 kts 284°
2026-05-08 02:24 34.70344 -89.22082 10437 ft 263 kts 284°
2026-05-08 02:24 34.70764 -89.24260 10298 ft 264 kts 284°
2026-05-08 02:24 34.71174 -89.26395 10183 ft 254 kts 284°
2026-05-08 02:25 34.71569 -89.28451 10057 ft 246 kts 284°
2026-05-08 02:25 34.71957 -89.30468 10003 ft 244 kts 284°
2026-05-08 02:25 34.72334 -89.32459 9991 ft 239 kts 284°
2026-05-08 02:25 34.72701 -89.34391 9976 ft 229 kts 284°
2026-05-08 02:26 34.73056 -89.36233 9974 ft 220 kts 284°
2026-05-08 02:26 34.73403 -89.38037 9998 ft 218 kts 284°
2026-05-08 02:26 34.73751 -89.39837 9997 ft 219 kts 284°
2026-05-08 02:26 34.74106 -89.41609 9998 ft 219 kts 285°
2026-05-08 02:27 34.74465 -89.43415 9993 ft 220 kts 285°
2026-05-08 02:27 34.74817 -89.45228 10005 ft 224 kts 284°
2026-05-08 02:27 34.75175 -89.47147 10009 ft 238 kts 284°
2026-05-08 02:27 34.75374 -89.48236 9997 ft 239 kts 284°
2026-05-08 02:28 34.75666 -89.49788 9990 ft 240 kts 284°
2026-05-08 02:28 34.76041 -89.51759 9958 ft 238 kts 284°
2026-05-08 02:28 34.76410 -89.53709 9737 ft 236 kts 284°
2026-05-08 02:28 34.76776 -89.55657 9330 ft 238 kts 284°
2026-05-08 02:29 34.77156 -89.57631 8944 ft 240 kts 285°
2026-05-08 02:29 34.77548 -89.59606 8597 ft 240 kts 285°
2026-05-08 02:29 34.77924 -89.61593 8261 ft 241 kts 279°
2026-05-08 02:29 34.77895 -89.63613 7927 ft 244 kts 268°
2026-05-08 02:30 34.77744 -89.65696 7600 ft 244 kts 268°
2026-05-08 02:30 34.77599 -89.67725 7280 ft 245 kts 268°
2026-05-08 02:30 34.77454 -89.69790 6954 ft 245 kts 268°
2026-05-08 02:30 34.77389 -89.71857 6639 ft 244 kts 280°
2026-05-08 02:31 34.77804 -89.73841 6315 ft 242 kts 288°
2026-05-08 02:31 34.78285 -89.75810 5986 ft 243 kts 288°
2026-05-08 02:31 34.78768 -89.77778 5674 ft 243 kts 288°
2026-05-08 02:31 34.79255 -89.79740 5355 ft 243 kts 288°
2026-05-08 02:32 34.79752 -89.81712 5032 ft 243 kts 288°
2026-05-08 02:32 34.80256 -89.83677 4741 ft 242 kts 288°
2026-05-08 02:32 34.80761 -89.85625 4529 ft 241 kts 288°
2026-05-08 02:32 34.81268 -89.87569 4325 ft 242 kts 288°
2026-05-08 02:33 34.81770 -89.89500 4128 ft 242 kts 288°
2026-05-08 02:33 34.82280 -89.91459 3885 ft 245 kts 288°
2026-05-08 02:33 34.82798 -89.93444 3633 ft 244 kts 288°
2026-05-08 02:33 34.83300 -89.95367 3459 ft 234 kts 288°
2026-05-08 02:34 34.83932 -89.97162 3151 ft 226 kts 310°
2026-05-08 02:34 34.85203 -89.98094 3024 ft 210 kts 351°
2026-05-08 02:34 34.86626 -89.98278 3002 ft 202 kts 355°
2026-05-08 02:34 34.88001 -89.98375 2982 ft 194 kts 358°
2026-05-08 02:35 34.89342 -89.98411 2868 ft 194 kts 359°
2026-05-08 02:35 34.90650 -89.98436 2635 ft 184 kts 359°
2026-05-08 02:35 34.91905 -89.98459 2404 ft 173 kts 360°
2026-05-08 02:35 34.93073 -89.98484 2199 ft 169 kts 360°
2026-05-08 02:36 34.94259 -89.98513 1960 ft 171 kts 359°
2026-05-08 02:36 34.95451 -89.98542 1719 ft 169 kts 360°
2026-05-08 02:36 34.96551 -89.98563 1485 ft 152 kts 359°
2026-05-08 02:36 34.97283 -89.98579 1360 ft 146 kts 359°
2026-05-08 02:37 34.98273 -89.98598 1189 ft 150 kts
2026-05-08 02:37 34.99326 -89.98625 984 ft 152 kts 359°
2026-05-08 02:37 35.00391 -89.98658 758 ft 152 kts 359°
2026-05-08 02:37 35.01445 -89.98666 572 ft 151 kts 359°
2026-05-08 02:38 35.02501 -89.98695 375 ft 153 kts 360°
2026-05-08 02:38 35.03530 -89.98712 329 ft 128 kts 359°
2026-05-08 02:38 35.04230 -89.98721 325 ft 72 kts 360°
2026-05-08 02:38 35.04464 -89.98717 326 ft 24 kts 13°
2026-05-08 02:39 35.04574 -89.98681 328 ft 9 kts 19°
2026-05-08 02:39 35.04626 -89.98646 328 ft 11 kts 33°
2026-05-08 02:39 35.04640 -89.98617 329 ft 1 kts 114°
2026-05-08 02:39 35.04659 -89.98589 328 ft 11 kts 45°
2026-05-08 02:40 35.04662 -89.98528 328 ft 6 kts 136°
2026-05-08 02:40 35.04609 -89.98506 328 ft 13 kts 177°
2026-05-08 02:40 35.04512 -89.98506 328 ft 14 kts 180°
2026-05-08 02:40 35.04401 -89.98505 327 ft 20 kts 179°
2026-05-08 02:41 35.04274 -89.98501 328 ft 16 kts 179°
2026-05-08 02:41 35.04165 -89.98499 325 ft 15 kts 179°
2026-05-08 02:41 35.04061 -89.98495 328 ft 15 kts 178°
2026-05-08 02:41 35.03962 -89.98492 327 ft 14 kts 178°
2026-05-08 02:42 35.03883 -89.98449 328 ft 14 kts 100°
2026-05-08 02:42 35.03882 -89.98338 330 ft 13 kts 90°
2026-05-08 02:42 35.03884 -89.98228 329 ft 13 kts 88°
2026-05-08 02:42 35.03886 -89.98111 329 ft 15 kts 88°
2026-05-08 02:43 35.03936 -89.98033 327 ft 11 kts 10°
2026-05-08 02:43 35.03976 -89.97964 329 ft 11 kts 88°
2026-05-08 02:43 35.03985 -89.97905 328 ft 1 kts 64°
2026-05-08 02:43 35.03989 -89.97896 328 ft 7 kts 59°
2026-05-08 02:44 35.04014 -89.97868 327 ft 1 kts 27°
2026-05-08 02:44 35.04047 -89.97853 329 ft 5 kts 13°
2026-05-08 02:44 35.04085 -89.97846 329 ft 6 kts 13°
2026-05-08 02:44 35.04111 -89.97848 328 ft 0 kts 329°
2026-05-08 02:45 35.04113 -89.97849 327 ft 1 kts 331°
2026-05-08 02:45 35.04123 -89.97862 329 ft 6 kts 304°
2026-05-08 02:45 35.04123 -89.97889 326 ft 1 kts 257°
2026-05-08 02:45 35.04122 -89.97892 326 ft 0 kts 256°